Location: Moscow
(55.7500°N, 37.5830°E)
Time: 14:17:31
(UTC+03:00)

Vanguard 1 - Pass Details

Date: 06 December 2021
Orbit: 652 x 3830 km, 34.2° (Epoch: 25 January)

Event Time Altitude Azimuth Distance (km) Brightness Sun altitude
Exits shadow 02:30:09 34° 154° (SSE) 4,737 13.2 -49.0°
Drops below altitude 10° 02:40:53 10° 122° (ESE) 5,720 14.1 -47.9°
Sets 02:44:59 0° 115° (ESE) 6,359 14.5 -47.4°
